Location: Boca do Mato
(22.9085°S, 43.2930°W)
Time: 22:18:59
(UTC+00:00)

SJ 16-02 - Pass Details

Date: 14 July 2020
Orbit: 606 x 616 km, 75.0° (Epoch: 10 August)

Event Time Altitude Azimuth Distance (km) Brightness Sun altitude
Exits shadow 08:09:55 10° 186° (S) 2,003 3.8 -19.0°
Reaches altitude 10° 08:09:58 10° 185° (S) 1,984 3.7 -19.0°
Maximum altitude 08:14:22 62° 104° (ESE) 692 1.8 -18.0°
Drops below altitude 10° 08:18:42 10° 23° (NNE) 1,966 4.5 -17.1°
Sets 08:20:57 0° 19° (NNE) 2,865 5.3 -16.6°
